This demonstration page uses our WeatherBlox Daily Observations layout. Learn more.

38.89511, -77.03637

Hourly Observations for June 24, 2015

Temp ( °F °C ) Dew Point ( °F °C ) Humidity (%) Winds ( mph kmh ) Pressure ( in mb ) Visibility ( mi km ) Precip ( " mm )
12:52 am 00:52 Mostly Cloudy 77 25 72 22 83 83 W 6 9 29.97 1015 10 16.09344 0 0
1:52 am 01:52 Mostly Cloudy 77 25 70 21 79 79 Calm 29.97 1015 10 16.09344 0 0
2:52 am 02:52 Mostly Cloudy 77 25 66 19 69 69 NW 10 17 29.97 1015 10 16.09344 0 0
3:52 am 03:52 Partly Cloudy 72 22 64 18 78 78 NW 8 13 30 1016 10 16.09344 0 0
4:52 am 04:52 Mostly Cloudy 72 22 63 17 73 73 NW 13 20 30.03 1017 10 16.09344 0 0
5:52 am 05:52 Mostly Cloudy 70 21 63 17 78 78 NW 12 19 30.03 1017 10 16.09344 0 0
6:52 am 06:52 Mostly Cloudy 72 22 63 17 73 73 NNW 7 11 30.06 1018 10 16.09344 0 0
7:52 am 07:52 Mostly Cloudy 73 23 63 17 69 69 NW 10 17 30.09 1019 10 16.09344 0 0
8:52 am 08:52 Mostly Cloudy 75 24 63 17 65 65 NNW 8 13 30.09 1019 10 16.09344 0 0
9:52 am 09:52 Cloudy 75 24 61 16 61 61 NNW 5 7 30.09 1019 10 16.09344 0 0
10:52 am 10:52 Cloudy 79 26 61 16 54 54 N 7 11 30.09 1019 10 16.09344 0 0
11:52 am 11:52 Mostly Cloudy 81 27 63 17 54 54 N 6 9 30.09 1019 10 16.09344 0 0
12:52 pm 12:52 Mostly Cloudy 82 28 61 16 48 48 N 8 13 30.09 1019 10 16.09344 0 0
1:52 pm 13:52 Mostly Cloudy 82 28 61 16 48 48 NNW 9 15 30.06 1018 10 16.09344 0 0
2:52 pm 14:52 Mostly Cloudy 84 29 57 14 40 40 NNW 16 26 30.06 1018 10 16.09344 0 0
3:52 pm 15:52 Mostly Cloudy 84 29 61 16 45 45 NW 13 20 30.06 1018 10 16.09344 0 0
4:52 pm 16:52 Mostly Cloudy 84 29 57 14 40 40 NNW 14 22 30.06 1018 10 16.09344 0 0
5:52 pm 17:52 Mostly Cloudy 84 29 57 14 40 40 NNW 10 17 30.06 1018 10 16.09344 0 0
6:52 pm 18:52 Partly Cloudy 84 29 57 14 40 40 NNW 14 22 30.06 1018 10 16.09344 0 0
7:52 pm 19:52 Partly Cloudy 82 28 57 14 42 42 NNW 8 13 30.06 1018 10 16.09344 0 0
8:52 pm 20:52 Partly Cloudy 82 28 55 13 40 40 N 5 7 30.06 1018 10 16.09344 0 0
9:52 pm 21:52 Partly Cloudy 81 27 59 15 48 48 N 6 9 30.06 1018 10 16.09344 0 0
10:52 pm 22:52 Mostly Cloudy 79 26 61 16 54 54 N 6 9 30.09 1019 10 16.09344 0 0
11:52 pm 23:52 Mostly Cloudy 79 26 59 15 51 51 NNW 5 7 30.09 1019 10 16.09344 0 0

Powered by AerisWeather